カタログに戻る

DELTA 1 DEB

運用中PO
NORAD 21448·DEBRIS·🇺🇸 United States

打ち上げ Jun 12, 1975 から Vandenberg Space Force Base

Loading…

次のパス (今後24時間)

TLE

最新Source: Space-Track

元期: Sep 14, 2026, 14:24 UTC

1 21448U 75052EG  26257.60062726 -.00000015  00000-0  62565-4 0  9994
2 21448  99.6477 303.3000 0129112 317.6678 209.8596 13.18254381701313

AllMySatでDELTA 1 DEBをリアルタイム追跡

Download on the App Store